Location: Rodanthe
(35.5920°N, 75.4670°W)
Time: 20:32:59
(UTC-05:00)

ISS - All Passes

Search period start: 26 November 2014 00:00
Search period end: 06 December 2014 00:00
Orbit: 407 x 417 km, 51.6° (Epoch: 26 November)

Date Brightness Start Highest point End Pass type
(mag) Time Alt. Az. Time Alt. Az. Time Alt. Az.
26 Nov - 04:28:04 10° NNE 04:28:29 10° NNE 04:28:55 10° NNE visible
26 Nov - 06:02:29 10° NW 06:05:44 56° NE 06:08:58 10° ESE visible
26 Nov - 07:40:56 10° WSW 07:41:59 11° SW 07:43:03 10° SW daylight
26 Nov - 22:41:49 10° SW 22:45:06 82° NW 22:48:23 10° NE night (unlit)
27 Nov - 00:20:45 10° NW 00:22:11 12° NNW 00:23:37 10° N night (unlit)
27 Nov - 05:12:54 10° NNW 05:15:52 30° NE 05:18:50 10° E visible
27 Nov - 06:49:47 10° WNW 06:52:23 22° SW 06:54:58 10° S daylight
27 Nov - 21:52:09 10° SSW 21:55:19 47° SE 21:58:30 10° ENE night (unlit)
27 Nov - 23:29:47 10° WNW 23:32:08 18° NNW 23:34:29 10° NNE night (unlit)
28 Nov - 04:23:26 10° NNW 04:25:53 19° NNE 04:28:20 10° ENE visible
28 Nov - 05:59:31 10° WNW 06:02:40 43° SW 06:05:48 10° SSE visible
28 Nov - 21:02:54 10° S 21:05:35 23° SE 21:08:16 10° ENE night (unlit)
28 Nov - 22:39:13 10° W 22:42:07 28° NW 22:45:02 10° NNE night (unlit)
29 Nov - 03:34:12 10° N 03:35:48 13° NNE 03:37:24 10° NE visible
29 Nov - 05:09:33 10° NW 05:12:51 89° NE 05:16:08 10° SE visible
29 Nov - 20:14:29 10° SSE 20:15:51 12° SE 20:17:14 10° ESE night (unlit)
29 Nov - 21:48:56 10° WSW 21:52:08 51° NW 21:55:21 10° NE night (unlit)
30 Nov - 04:19:45 10° NW 04:22:55 44° NE 04:26:05 10° ESE visible
30 Nov - 05:57:26 10° W 05:59:15 14° SW 06:01:05 10° SSW visible
30 Nov - 20:58:55 10° SW 21:02:12 78° SE 21:05:29 10° NE night (unlit)
30 Nov - 22:37:22 10° WNW 22:39:11 14° NNW 22:41:00 10° N night (unlit)
01 Dec - 03:30:04 10° NNW 03:32:53 25° NNE 03:35:41 10° E visible
01 Dec - 05:06:38 10° WNW 05:09:28 27° SW 05:12:18 10° S visible
01 Dec - 20:09:15 10° SSW 20:12:17 36° SE 20:15:21 10° ENE night (unlit)
01 Dec - 21:46:25 10° W 21:49:00 21° NNW 21:51:35 10° NNE night (unlit)
02 Dec - 02:40:32 10° NNW 02:42:43 16° NNE 02:44:54 10° ENE night (unlit)
02 Dec - 04:16:21 10° NW 04:19:35 56° SW 04:22:48 10° SE visible
02 Dec - 19:20:03 10° S 19:22:25 19° SE 19:24:47 10° E night (unlit)
02 Dec - 20:55:48 10° WSW 20:58:51 34° NW 21:01:54 10° NNE night (unlit)
03 Dec - 01:51:20 10° N 01:52:27 11° NNE 01:53:33 10° NE night (unlit)
03 Dec - 03:26:18 10° NW 03:29:35 69° NE 03:32:51 10° SE night (unlit)
03 Dec - 20:05:29 10° SW 20:08:45 67° NW 20:12:01 10° NE night (unlit)
03 Dec - 21:44:53 10° NW 21:45:54 11° NNW 21:46:55 10° N night (unlit)
04 Dec - 02:36:24 10° NNW 02:39:28 35° NE 02:42:32 10° ESE night (unlit)
04 Dec - 04:13:35 10° W 04:15:53 18° SW 04:18:12 10° S night (unlit)
04 Dec - 19:15:27 10° SW 19:18:41 58° SE 19:21:55 10° NE visible
04 Dec - 20:53:24 10° WNW 20:55:33 16° NNW 20:57:42 10° NNE night (unlit)
05 Dec - 01:46:38 10° NNW 01:49:15 21° NNE 01:51:51 10° E night (unlit)
05 Dec - 03:22:54 10° WNW 03:25:56 35° SW 03:28:57 10° SSE night (unlit)
05 Dec - 18:25:47 10° SSW 18:28:39 28° SE 18:31:31 10° ENE visible
05 Dec - 20:02:27 10° W 20:05:14 25° NNW 20:08:02 10° NNE visible
